Home   Weather   Virudhunagar   Past weeks

Flag for India Past Weather in Virudhunagar, Tamil Nadu, India — Yesterday and Last 2 Weeks

Now
95 °F

Partly sunny.


Feels Like: 101 °F
Forecast: 73 / 95 °F
Wind: 12 mph from Northwest

Location: Tiruchchirapalli

Current Time: Sep 30, 2016 at 5:26:41 PM

Latest Report: Sep 30, 2016 at 4:30 PM


Visibility: 4 mi

Pressure: 29.59 "Hg

Humidity: 44%

Dew Point: 70 °F

Location of VirudhunagarLocation

Past Weather in Virudhunagar — Graph

°F

Virudhunagar Temperature Yesterday

Maximum temperature yesterday: 97 °F (at 3:00 PM)
Minimum temperature yesterday: 79 °F (at 11:00 PM)
Average temperature yesterday: 86 °F

High & Low Weather Summary for the Past Weeks

 TemperatureHumidityPressure
High102 °F (Sep 16, 2:00 PM)94% (Sep 29, 11:00 PM)29.83 "Hg (Sep 29, 11:00 PM)
Low79 °F (Sep 16, 6:00 AM)31% (Sep 16, 2:00 PM)29.53 "Hg (Sep 18, 9:30 AM)
Average88 °F55%29.71 "Hg
* Reported Sep 15 3:30 PM — Sep 30 4:00 PM, Virudhunagar, Weather by CustomWeather, © 2016

Note: Actual official high and low records may vary slightly from our data, if they occured in-between our weather recording intervals... More about our weather records

Advertising

Virudhunagar Weather History for the Previous 24 Hours

Scroll right to see more
 ConditionsComfort  
Time TempWeatherWind HumidityBarometerVisibility
4:00 PM
Fri, Sep 30
95 °FPassing clouds.7 mph47%29.59 "Hg4 mi
3:30 PM95 °FPassing clouds.14 mph47%29.59 "Hg4 mi
3:00 PM97 °FScattered clouds.14 mph42%29.59 "Hg4 mi
2:30 PM97 °FPartly sunny.14 mph39%29.59 "Hg4 mi
2:00 PM95 °FPartly sunny.14 mph44%29.62 "Hg4 mi
1:30 PM95 °FPartly sunny.12 mph47%29.65 "Hg4 mi
1:00 PM95 °FPartly sunny.12 mph47%29.65 "Hg4 mi
12:30 PM93 °FPartly sunny.14 mph49%29.68 "Hg4 mi
12:00 PM91 °FPartly sunny.14 mph52%29.71 "Hg4 mi
11:30 AM91 °FPartly sunny.12 mph52%29.71 "Hg4 mi
11:00 AM90 °FPartly sunny.12 mph55%29.71 "Hg4 mi
10:30 AM88 °FPartly sunny.12 mph59%29.74 "Hg4 mi
10:00 AM86 °FBroken clouds.12 mph62%29.74 "Hg4 mi
9:30 AM84 °FBroken clouds.12 mph66%29.74 "Hg4 mi
9:00 AM84 °FBroken clouds.12 mph66%29.74 "Hg3 mi
8:30 AM82 °FFog.12 mph70%29.74 "Hg3 mi
8:00 AM82 °FFog.12 mph74%29.71 "Hg3 mi
7:30 AM81 °FFog.9 mph79%29.71 "Hg3 mi
7:00 AM81 °FFog.9 mph79%29.71 "Hg3 mi
6:30 AM79 °FFog.9 mph84%29.71 "Hg3 mi
6:00 AM79 °FFog.10 mph84%29.68 "Hg3 mi
5:30 AM79 °FFog.10 mph84%29.68 "Hg3 mi
5:00 AM79 °FFog.9 mph79%29.68 "Hg3 mi
4:30 AM79 °FFog.9 mph79%29.68 "Hg3 mi
4:00 AM79 °FFog.9 mph79%29.68 "Hg3 mi
3:30 AM79 °FFog.9 mph79%29.68 "Hg3 mi
3:00 AM79 °FFog.7 mph79%29.68 "Hg3 mi
2:30 AM79 °FFog.8 mph79%29.68 "Hg3 mi
2:00 AM79 °FFog.8 mph79%29.71 "Hg3 mi
1:30 AM79 °FFog.8 mph79%29.71 "Hg2 mi
1:00 AM79 °FFog.8 mph84%29.74 "Hg2 mi
12:30 AM79 °FFog.6 mph89%29.74 "Hg2 mi
12:00 AM79 °FFog.6 mph94%29.74 "Hg2 mi
11:30 PM
Thu, Sep 29
79 °FDrizzle. Mostly cloudy.6 mph94%29.77 "Hg2 mi
11:00 PM79 °FDrizzle. Mostly cloudy.6 mph94%29.77 "Hg2 mi
10:30 PM81 °FDrizzle. Mostly cloudy.3 mph89%29.74 "Hg3 mi
10:00 PM81 °FFog.5 mph89%29.74 "Hg3 mi
9:30 PM81 °FFog.6 mph89%29.74 "Hg3 mi
9:00 PM81 °FThunderstorms. Mostly cloudy.8 mph89%29.74 "Hg3 mi
8:30 PM81 °FThunderstorms. Mostly cloudy.6 mph89%29.71 "Hg2 mi
8:00 PM86 °FThunderstorms. Partly cloudy.12 mph70%29.68 "Hg2 mi
7:00 PM91 °FPassing clouds.3 mph49%29.65 "Hg4 mi
6:30 PM91 °FBroken clouds.9 mph49%29.65 "Hg4 mi
6:00 PM93 °FBroken clouds.12 mph47%29.62 "Hg4 mi
5:30 PM93 °FBroken clouds.12 mph59%29.62 "Hg4 mi
5:00 PM95 °FBroken clouds.6 mph44%29.59 "Hg4 mi
Weather by CustomWeather, © 2016

See weather overviewHow to use our weather pages